TimeEDT,TemperatureF,Dew PointF,Humidity,Sea Level PressureIn,VisibilityMPH,Wind Direction,Wind SpeedMPH,Gust SpeedMPH,PrecipitationIn,Events,Conditions,WindDirDegrees,DateUTC
12:15 AM,57.2,57.2,100,30.21,10.0,Calm,Calm,-,N/A,,Clear,0,2013-09-19 04:15:00
12:35 AM,57.2,57.2,100,30.20,10.0,North,-9999.0,-,N/A,,Clear,0,2013-09-19 04:35:00
12:55 AM,57.2,57.2,100,30.19,10.0,Calm,Calm,-,N/A,,Clear,0,2013-09-19 04:55:00
1:15 AM,55.4,55.4,100,30.20,10.0,Calm,Calm,-,N/A,,Clear,0,2013-09-19 05:15:00
1:35 AM,57.2,57.2,100,30.20,9.0,Calm,Calm,-,N/A,,Clear,0,2013-09-19 05:35:00
1:55 AM,57.2,57.2,100,30.19,10.0,Calm,Calm,-,N/A,,Clear,0,2013-09-19 05:55:00
2:15 AM,57.2,57.2,100,30.19,10.0,Calm,Calm,-,N/A,Rain,Light Rain,0,2013-09-19 06:15:00
2:35 AM,55.4,55.4,100,30.19,10.0,Calm,Calm,-,N/A,Rain,Light Rain,0,2013-09-19 06:35:00
2:55 AM,55.4,55.4,100,30.18,10.0,Calm,Calm,-,N/A,Rain,Light Rain,0,2013-09-19 06:55:00
3:15 AM,55.4,55.4,100,30.17,10.0,Calm,Calm,-,N/A,,Clear,0,2013-09-19 07:15:00
3:35 AM,55.4,55.4,100,30.17,10.0,Calm,Calm,-,N/A,,Clear,0,2013-09-19 07:35:00
3:55 AM,55.4,55.4,100,30.18,10.0,Calm,Calm,-,N/A,,Clear,0,2013-09-19 07:55:00
4:15 AM,53.6,53.6,100,30.18,9.0,Calm,Calm,-,N/A,,Clear,0,2013-09-19 08:15:00
4:35 AM,53.6,53.6,100,30.18,8.0,Calm,Calm,-,N/A,,Clear,0,2013-09-19 08:35:00
4:55 AM,53.6,53.6,100,30.18,9.0,Calm,Calm,-,N/A,,Clear,0,2013-09-19 08:55:00
5:15 AM,53.6,53.6,100,30.18,8.0,Calm,Calm,-,N/A,,Clear,0,2013-09-19 09:15:00
5:35 AM,53.6,53.6,100,30.18,4.0,Calm,Calm,-,N/A,,Clear,0,2013-09-19 09:35:00
5:55 AM,53.6,53.6,100,30.18,2.5,Calm,Calm,-,N/A,,Clear,0,2013-09-19 09:55:00
6:15 AM,55.4,55.4,100,30.18,6.0,Calm,Calm,-,N/A,,Mostly Cloudy,0,2013-09-19 10:15:00
6:35 AM,55.4,55.4,100,30.18,5.0,Calm,Calm,-,N/A,,Overcast,0,2013-09-19 10:35:00
6:55 AM,55.4,55.4,100,30.19,8.0,Calm,Calm,-,N/A,,Overcast,0,2013-09-19 10:55:00
7:15 AM,55.4,55.4,100,30.19,8.0,Calm,Calm,-,N/A,,Overcast,0,2013-09-19 11:15:00
7:35 AM,57.2,57.2,100,30.19,6.0,Calm,Calm,-,N/A,,Overcast,0,2013-09-19 11:35:00
7:55 AM,57.2,57.2,100,30.19,10.0,Calm,Calm,-,N/A,,Overcast,0,2013-09-19 11:55:00
8:15 AM,59.0,59.0,100,30.20,10.0,Calm,Calm,-,N/A,,Overcast,0,2013-09-19 12:15:00
8:35 AM,59.0,59.0,100,30.20,10.0,Calm,Calm,-,N/A,,Overcast,0,2013-09-19 12:35:00
8:55 AM,60.8,59.0,94,30.20,10.0,Calm,Calm,-,N/A,,Overcast,0,2013-09-19 12:55:00
9:15 AM,62.6,59.0,88,30.20,10.0,Calm,Calm,-,N/A,,Overcast,0,2013-09-19 13:15:00
9:35 AM,64.4,59.0,83,30.21,10.0,Calm,Calm,-,N/A,,Overcast,0,2013-09-19 13:35:00
9:55 AM,64.4,59.0,83,30.21,10.0,Calm,Calm,-,0.02,,Overcast,0,2013-09-19 13:55:00
10:15 AM,66.2,59.0,78,30.21,-9999.0,Calm,Calm,-,N/A,Rain,Light Rain,0,2013-09-19 14:15:00
10:35 AM,66.2,59.0,78,30.21,10.0,Calm,Calm,-,N/A,Rain,Light Rain,0,2013-09-19 14:35:00
10:55 AM,68.0,59.0,73,30.21,10.0,Calm,Calm,-,N/A,,Overcast,0,2013-09-19 14:55:00
11:15 AM,68.0,59.0,73,30.21,10.0,Calm,Calm,-,N/A,,Overcast,0,2013-09-19 15:15:00
11:35 AM,69.8,55.4,60,30.21,10.0,Calm,Calm,-,N/A,,Overcast,0,2013-09-19 15:35:00
11:55 AM,71.6,57.2,60,30.21,10.0,Calm,Calm,-,N/A,,Unknown,0,2013-09-19 15:55:00
12:15 PM,71.6,55.4,57,30.20,10.0,SW,3.5,-,N/A,,Overcast,230,2013-09-19 16:15:00
12:35 PM,73.4,57.2,57,30.20,10.0,Calm,Calm,-,N/A,,Overcast,0,2013-09-19 16:35:00
12:55 PM,73.4,57.2,57,30.19,10.0,North,3.5,-,N/A,,Overcast,350,2013-09-19 16:55:00
1:15 PM,73.4,57.2,57,30.18,10.0,Calm,Calm,-,N/A,,Overcast,0,2013-09-19 17:15:00
1:35 PM,75.2,57.2,53,30.18,10.0,Calm,Calm,-,N/A,,Overcast,0,2013-09-19 17:35:00
1:55 PM,75.2,57.2,53,30.17,10.0,Calm,Calm,-,N/A,,Mostly Cloudy,0,2013-09-19 17:55:00
2:15 PM,75.2,59.0,57,30.17,10.0,Calm,Calm,-,N/A,,Mostly Cloudy,0,2013-09-19 18:15:00
2:35 PM,77.0,57.2,50,30.16,10.0,Calm,Calm,-,N/A,,Mostly Cloudy,0,2013-09-19 18:35:00
2:55 PM,77.0,59.0,54,30.15,10.0,Calm,Calm,-,N/A,,Partly Cloudy,0,2013-09-19 18:55:00
3:15 PM,78.8,57.2,47,30.14,10.0,SSW,3.5,-,N/A,,Mostly Cloudy,210,2013-09-19 19:15:00
3:35 PM,77.0,57.2,50,30.13,10.0,NW,4.6,-,N/A,,Scattered Clouds,320,2013-09-19 19:35:00
3:55 PM,77.0,59.0,54,30.13,10.0,Calm,Calm,-,N/A,,Mostly Cloudy,0,2013-09-19 19:55:00
4:15 PM,77.0,59.0,54,30.12,10.0,Calm,Calm,-,N/A,,Mostly Cloudy,0,2013-09-19 20:15:00
4:35 PM,77.0,59.0,54,30.13,10.0,Calm,Calm,-,N/A,,Scattered Clouds,0,2013-09-19 20:35:00
4:55 PM,77.0,59.0,54,30.12,10.0,Calm,Calm,-,N/A,,Partly Cloudy,0,2013-09-19 20:55:00
5:15 PM,77.0,59.0,54,30.12,10.0,Calm,Calm,-,N/A,,Scattered Clouds,0,2013-09-19 21:15:00
5:35 PM,77.0,62.6,61,30.11,10.0,Calm,Calm,-,N/A,,Partly Cloudy,0,2013-09-19 21:35:00
5:55 PM,75.2,64.4,69,30.12,10.0,Calm,Calm,-,N/A,,Clear,0,2013-09-19 21:55:00
6:15 PM,75.2,66.2,73,30.11,10.0,Calm,Calm,-,N/A,,Partly Cloudy,0,2013-09-19 22:15:00
6:35 PM,73.4,68.0,83,30.12,10.0,Calm,Calm,-,N/A,,Mostly Cloudy,0,2013-09-19 22:35:00
6:55 PM,71.6,69.8,94,30.12,10.0,Calm,Calm,-,N/A,,Scattered Clouds,0,2013-09-19 22:55:00
7:15 PM,71.6,69.8,94,30.12,10.0,Calm,Calm,-,N/A,,Clear,0,2013-09-19 23:15:00
7:35 PM,68.0,68.0,100,30.11,10.0,Calm,Calm,-,N/A,,Clear,0,2013-09-19 23:35:00
7:55 PM,66.2,66.2,100,30.11,10.0,Calm,Calm,-,N/A,,Clear,0,2013-09-19 23:55:00
8:15 PM,66.2,66.2,100,30.11,10.0,Calm,Calm,-,N/A,,Partly Cloudy,0,2013-09-20 00:15:00
8:35 PM,66.2,66.2,100,30.12,10.0,Calm,Calm,-,N/A,,Partly Cloudy,0,2013-09-20 00:35:00
8:55 PM,66.2,66.2,100,30.11,10.0,Calm,Calm,-,N/A,,Clear,0,2013-09-20 00:55:00
9:15 PM,66.2,66.2,100,30.11,10.0,Calm,Calm,-,N/A,,Clear,0,2013-09-20 01:15:00
9:35 PM,64.4,64.4,100,30.12,10.0,Calm,Calm,-,N/A,,Clear,0,2013-09-20 01:35:00
9:55 PM,64.4,64.4,100,30.12,10.0,Calm,Calm,-,N/A,,Clear,0,2013-09-20 01:55:00
10:15 PM,64.4,64.4,100,30.11,10.0,Calm,Calm,-,N/A,,Clear,0,2013-09-20 02:15:00
10:35 PM,64.4,64.4,100,30.11,10.0,Calm,Calm,-,N/A,,Clear,0,2013-09-20 02:35:00
10:55 PM,62.6,62.6,100,30.11,10.0,Calm,Calm,-,N/A,,Clear,0,2013-09-20 02:55:00
11:15 PM,62.6,62.6,100,30.11,10.0,Calm,Calm,-,N/A,,Clear,0,2013-09-20 03:15:00
11:35 PM,62.6,62.6,100,30.11,10.0,Calm,Calm,-,N/A,,Clear,0,2013-09-20 03:35:00
11:55 PM,62.6,62.6,100,30.10,10.0,Calm,Calm,-,N/A,,Clear,0,2013-09-20 03:55:00